Vertical_Velocity
-1 -1 -1 -1 -1 -1 -2 -0 -2 -1 -0 -1 -2 -1 -1 1 -2 -2 -2 -2 -3 -0 -1 -2 0 -2 -1 -6 3 3 1 -1 1 -0 0 2 2 4 1 -2 3 -4 3 5 5 -1 1
-2 -2 -1 -0 -2 0 -1 -1 -0 -1 -1 -1 0 1 -2 -1 -2 -1 -1 -1 -1 -2 -2 0 -0 -2 -1 -3 -1 2 -1 2 0 1 2 2 1 5 -2 -2 2 -2 1 -1 -3 0 -0
1 -2 -2 -2 -1 -0 -1 0 0 -0 -1 -1 -2 -1 -1 -4 -4 -1 -1 0 -2 -2 3 -1 2 -2 -4 9 3 3 0 0 -0 3 3 2 3 1 1 2 1 0 -2 -0 -4 -2 1
-1 -1 -1 -2 -1 -2 -1 -1 -1 -2 -2 -2 -1 -0 -0 1 0 -4 -0 -0 -1 -2 2 -1 -1 -0 2 2 3 0 1 5 2 3 -0 1 1 2 -2 3 1 1 2 -2 -5 2 4
-2 -1 -2 -1 1 0 -1 -1 0 -1 -2 -2 -1 -3 2 -1 -3 -2 2 5 -4 -3 -0 -2 -2 2 -1 -0 2 2 5 3 3 3 0 -1 2 2 0 3 6 -6 0 -3 -3 0 5
-2 -1 0 -1 -1 0 -1 -1 -3 -4 -3 -3 -4 -3 -2 -2 -3 -2 1 2 -0 -2 1 3 -0 -4 -2 1 2 4 2 2 2 3 4 3 3 -3 -1 2 -14 -1 2 -0 -4 -5 5
1 -0 -0 -0 -3 -2 -2 -3 -4 -3 -3 -5 -5 -3 -1 -3 -4 -3 1 3 -0 -5 5 7 4 -6 1 -3 -6 1 1 1 4 1 1 1 -1 -9 14 7 9 4 2 2 -10 3 3
-2 -1 -1 -2 -2 -2 -5 -5 -4 -3 -5 -5 -6 -6 -1 0 -3 -3 -5 -5 -1 -2 -14 4 3 5 0 -1 -1 2 1 2 3 3 3 0 -11 9 2 3 1 3 1 -11 -4 5 5
-1 -1 -1 -1 -2 -2 -0 -2 -4 -4 -3 -4 -6 -7 -1 1 -1 0 -7 -6 -6 -2 -2 1 -0 -1 0 2 0 -2 1 1 1 2 3 1 1 3 4 3 5 3 2 1 6 -4 -1
-1 -1 -2 -4 -3 -4 -3 -3 -2 -1 -0 -0 -2 -4 -5 -4 0 1 2 -2 -1 -1 -1 2 2 1 1 -1 0 -1 1 -1 0 -1 -1 -4 -0 -0 -1 -0 3 3 -2 3 2 4 -1
-1 -3 -2 -4 -5 -6 -6 -5 -5 -4 -3 0 -1 -2 -1 -7 -2 -0 -0 2 -4 -2 -5 2 3 5 4 -0 1 3 2 -3 2 3 -1 -2 -0 -0 -1 -1 2 -0 2 1 1 3 3
-4 -3 -3 -2 -2 -2 -4 -4 -5 -5 -3 0 -1 -3 -2 0 -2 -3 -1 -1 2 -2 -10 -0 0 2 1 2 -0 2 3 0 1 1 3 2 3 2 1 -0 2 3 3 1 2 4 2
-3 -6 -6 -4 -3 -5 -6 -4 -3 -3 -5 -1 -4 -2 -3 2 1 -3 -1 -3 3 -3 -0 0 -4 -3 -1 -7 -4 -7 -2 -1 -4 -7 -2 1 -4 -3 1 0 1 3 3 -4 0 -0 -6
-2 -2 -1 -5 -3 -2 -4 -5 -3 -1 -4 -3 -3 -2 -1 3 -3 -3 -0 0 0 -1 -1 -0 -0 -2 2 -1 1 0 0 -1 -3 -0 1 -1 -4 -0 0 1 3 -0 1 -1 1 -1 -3
-1 -2 -4 -2 -4 -5 -3 -4 -5 -5 -1 -0 -4 -2 -4 -4 -2 3 -5 -1 2 1 3 -6 -5 -0 2 -0 -5 -3 -2 -2 -1 3 -0 -1 0 0 -2 -0 5 -2 -1 -0 -1 -2 4
-2 -2 1 -0 -1 -3 -3 -4 -3 -2 -1 -0 -5 -1 -5 1 -1 -0 0 -3 -1 -7 -4 4 1 1 -1 -6 -3 -2 -4 3 1 8 1 3 -8 -8 -2 -4 -4 -3 -2 3 1 1 -0
-3 -1 -1 -3 -3 -3 -1 -2 -1 -2 2 -1 -1 -3 -5 -2 -5 0 2 0 3 4 1 -3 -3 -3 -3 0 0 1 2 3 4 0 -1 6 3 -4 1 -3 1 2 -0 3 2 -2 -1
-3 -3 -5 -7 -7 -7 -4 -0 -4 -1 -4 1 -2 -6 -0 -0 -4 -2 0 1 0 3 1 0 -0 -2 2 5 -1 -1 -3 -1 -3 -2 -7 1 2 -1 2 3 1 1 -4 2 6 -1 2
-5 -7 -6 -3 1 3 1 -4 -4 -1 -9 -5 -10 2 -3 -3 -2 -4 -3 -2 -4 -2 -2 1 -1 2 0 -0 -3 -1 1 -3 0 -4 3 2 7 -2 -1 -0 2 -2 -1 1 1 5 -3
-2 -2 -1 -2 -3 -3 -1 0 -1 -2 -3 -3 -19 1 -4 -1 -5 -4 -5 -4 -5 -1 -2 2 -1 -4 10 -0 2 1 -1 -3 -2 0 4 7 -1 2 5 3 10 -3 -0 1 3 4 -5
-2 1 3 4 -3 1 -1 -0 -2 -2 -2 2 -8 1 0 -1 0 -1 -1 1 -2 -4 -6 -2 3 5 -2 1 -3 -4 -1 2 -7 -0 2 7 -5 6 -1 -4 2 6 9 7 1 -7 6
-0 -2 -3 -3 -1 -4 3 4 -3 -5 -2 2 3 4 -3 -0 -0 -1 1 -1 -3 1 1 -3 4 1 0 -2 10 -12 7 9 -2 -9 2 1 -10 1 -20 -3 0 -6 1 -0 7 -1 -6
-1 2 -3 -3 -3 -2 -2 1 1 3 -4 1 -3 0 -2 7 3 1 -0 2 1 2 1 4 -1 -2 -3 -1 2 3 -0 -2 1 0 7 4 -1 5 -16 1 -3 -1 -6 5 3 3 3
-2 -2 2 0 1 -0 -1 -2 -3 4 2 -1 3 2 -1 -9 0 2 -1 4 1 6 -2 1 6 4 -2 -5 -8 -3 1 -0 4 2 8 -2 6 5 -13 7 4 -10 7 -2 -8 -4 -4
-4 -2 -2 -1 -1 -1 -1 0 0 2 6 0 4 3 2 -10 7 -1 2 2 2 3 3 -9 4 1 -3 1 -1 -7 -5 -1 -6 -0 -0 -1 0 0 0 -2 -11 -7 0 5 3 -10 3
-2 -2 1 2 2 3 3 3 6 7 7 1 9 11 7 5 -6 14 3 2 -1 1 -3 5 0 2 2 3 5 4 -4 -5 -4 -0 -1 -0 3 4 -0 4 -0 -11 -0 5 3 -15 3
2 0 1 1 0 4 1 2 6 3 11 2 -0 2 14 3 -10 -3 15 1 2 1 -3 1 1 -2 4 0 3 1 -2 1 -5 -1 -2 2 -0 -2 -2 4 -10 -2 5 1 -0 -6 -2
1 2 1 -0 -2 -0 -1 3 -1 13 10 5 -5 1 15 7 -9 -0 5 3 19 3 -1 -0 0 0 2 0 1 1 0 -0 -2 -1 -3 7 5 -2 2 2 -9 3 -2 3 3 -4 -2
-2 1 -0 -2 -1 -1 3 1 -1 5 5 10 -6 0 14 3 -10 5 -1 -3 -5 3 3 -4 3 6 -1 -2 1 1 -1 1 -0 -2 -2 -3 -2 -2 1 -6 5 2 -7 7 5 1 11
Height
3168 3165 3161 3158 3154 3151 3147 3144 3140 3135 3132 3128 3125 3121 3118 3115 3112 3108 3105 3102 3099 3096 3093 3090 3088 3085 3083 3082 3082 3078 3076 3074 3073 3071 3069 3068 3067 3066 3064 3062 3060 3057 3058 3058 3058 3059 3057
3166 3163 3160 3156 3153 3149 3145 3141 3137 3133 3129 3124 3120 3116 3112 3108 3105 3102 3099 3095 3093 3090 3087 3084 3081 3078 3076 3075 3073 3072 3070 3068 3067 3066 3064 3064 3063 3061 3059 3058 3055 3052 3051 3051 3051 3052 3049
3166 3162 3159 3155 3151 3147 3143 3138 3134 3129 3124 3119 3115 3111 3106 3102 3098 3094 3091 3088 3085 3082 3079 3076 3073 3070 3068 3069 3066 3063 3062 3061 3060 3059 3060 3059 3059 3057 3054 3053 3049 3046 3044 3044 3044 3046 3044
3164 3160 3157 3153 3149 3145 3141 3136 3131 3126 3121 3116 3110 3105 3100 3095 3090 3086 3084 3082 3077 3075 3072 3068 3066 3063 3059 3058 3056 3055 3053 3052 3052 3053 3054 3053 3052 3051 3049 3048 3044 3043 3039 3036 3039 3041 3039
3162 3158 3155 3152 3148 3144 3139 3133 3128 3122 3117 3110 3104 3098 3092 3087 3081 3076 3073 3071 3069 3067 3064 3062 3060 3056 3054 3051 3050 3049 3049 3049 3048 3047 3046 3045 3044 3044 3043 3042 3040 3038 3032 3031 3034 3037 3033
3162 3158 3155 3151 3146 3141 3137 3131 3125 3118 3111 3104 3098 3093 3086 3080 3073 3068 3064 3062 3058 3057 3055 3052 3050 3051 3047 3046 3044 3044 3043 3042 3041 3039 3039 3038 3037 3036 3035 3037 3033 3032 3030 3028 3030 3031 3027
3160 3157 3154 3150 3145 3139 3132 3126 3120 3112 3105 3098 3092 3086 3080 3074 3068 3062 3059 3056 3055 3052 3048 3046 3043 3039 3037 3037 3037 3035 3034 3033 3032 3032 3031 3031 3031 3027 3031 3032 3032 3031 3028 3025 3026 3025 3020
3160 3156 3152 3147 3141 3135 3128 3121 3114 3105 3097 3089 3083 3079 3074 3069 3063 3059 3054 3050 3047 3045 3041 3038 3033 3030 3028 3027 3027 3028 3029 3030 3028 3028 3026 3028 3026 3028 3028 3029 3028 3027 3024 3021 3021 3019 3014
3157 3153 3148 3142 3137 3131 3124 3118 3110 3103 3094 3085 3075 3071 3068 3064 3058 3055 3051 3046 3043 3039 3036 3031 3028 3026 3027 3026 3025 3026 3027 3026 3027 3027 3026 3024 3026 3026 3025 3025 3024 3022 3020 3018 3017 3013 3008
3153 3149 3143 3137 3132 3126 3119 3112 3106 3098 3090 3081 3072 3066 3062 3061 3056 3051 3047 3043 3040 3036 3030 3030 3027 3026 3026 3025 3026 3026 3026 3028 3026 3026 3024 3023 3023 3023 3022 3021 3021 3014 3014 3013 3010 3009 3003
3150 3145 3140 3134 3128 3121 3114 3108 3102 3095 3087 3078 3069 3063 3059 3051 3052 3047 3045 3041 3037 3034 3035 3031 3027 3026 3025 3027 3027 3026 3025 3024 3024 3021 3023 3021 3018 3017 3015 3015 3015 3010 3007 3006 3005 3003 3000
3148 3144 3138 3131 3124 3116 3109 3103 3098 3091 3084 3075 3067 3060 3055 3051 3047 3044 3041 3038 3035 3035 3030 3030 3027 3025 3025 3024 3023 3023 3022 3022 3019 3016 3015 3015 3014 3012 3009 3008 3007 3006 3002 3002 2999 2998 2997
3144 3139 3133 3126 3119 3111 3104 3098 3094 3088 3081 3072 3064 3058 3052 3049 3045 3041 3038 3036 3036 3029 3031 3028 3025 3024 3022 3021 3020 3019 3017 3017 3018 3015 3010 3010 3007 3005 3003 3002 3001 3000 3001 3000 2995 2996 2987
3139 3133 3127 3121 3113 3105 3098 3092 3088 3083 3077 3070 3060 3055 3049 3045 3042 3038 3036 3034 3032 3029 3026 3026 3022 3021 3019 3016 3014 3013 3014 3013 3013 3012 3007 3003 3000 3001 3001 3001 3000 2998 2999 2999 2990 2989 2986
3134 3129 3123 3116 3108 3101 3093 3085 3080 3077 3070 3065 3056 3051 3046 3042 3038 3035 3035 3032 3030 3029 3024 3021 3020 3017 3015 3013 3014 3011 3010 3009 3008 3007 3008 3002 2997 2997 2997 2997 2999 2995 2995 2996 2994 2988 2986
3130 3123 3116 3110 3103 3095 3089 3080 3074 3070 3065 3058 3050 3046 3043 3038 3035 3031 3030 3030 3026 3024 3025 3021 3019 3019 3015 3014 3013 3011 3007 3005 3005 3004 3002 3002 2997 2994 2994 2994 2993 2992 2994 2994 2993 2988 2980
3122 3115 3109 3103 3097 3090 3083 3076 3069 3064 3060 3053 3046 3039 3038 3034 3031 3030 3027 3025 3024 3020 3020 3019 3016 3015 3014 3011 3009 3008 3006 3004 3002 2999 2999 2998 2995 2991 2989 2988 2987 2987 2985 2985 2985 2983 2978
3116 3110 3104 3097 3090 3083 3078 3072 3064 3059 3053 3048 3040 3035 3034 3030 3028 3026 3026 3024 3021 3017 3015 3014 3010 3009 3008 3007 3003 3004 3004 3001 2999 2996 2995 2995 2990 2983 2982 2981 2981 2980 2979 2980 2978 2975 2970
3108 3102 3095 3088 3083 3077 3072 3066 3059 3054 3047 3040 3034 3029 3027 3025 3023 3022 3021 3021 3016 3012 3010 3008 3007 3004 3004 3003 3003 2997 2997 2997 2996 2995 2993 2989 2986 2982 2977 2978 2976 2974 2973 2973 2972 2971 2967
3101 3094 3087 3080 3075 3071 3066 3061 3054 3049 3043 3039 3032 3026 3021 3016 3017 3015 3012 3011 3010 3008 3003 3002 3000 2999 2998 2996 2998 2993 2992 2991 2991 2990 2989 2985 2982 2981 2974 2974 2973 2972 2970 2968 2966 2964 2960
3091 3085 3080 3073 3069 3065 3059 3055 3051 3043 3037 3034 3028 3023 3018 3016 3011 3009 3006 3004 3001 2999 2999 2998 2996 2995 2995 2992 2990 2988 2987 2985 2984 2983 2982 2980 2974 2972 2969 2966 2965 2963 2961 2961 2959 2956 2956
3083 3078 3073 3068 3063 3058 3053 3048 3047 3039 3032 3028 3025 3020 3012 3008 3004 3002 3001 2999 2997 2994 2993 2993 2992 2990 2989 2987 2984 2979 2980 2978 2977 2975 2974 2973 2967 2965 2960 2959 2958 2954 2953 2953 2951 2948 2945
3075 3070 3066 3061 3056 3051 3047 3043 3037 3032 3024 3018 3014 3011 3006 3002 2998 2995 2995 2994 2991 2989 2988 2987 2986 2983 2981 2980 2977 2975 2973 2971 2971 2969 2967 2965 2964 2962 2954 2954 2952 2949 2946 2945 2943 2941 2940
3068 3063 3058 3053 3048 3043 3038 3033 3029 3025 3019 3013 3009 3004 2998 2991 2990 2990 2988 2988 2986 2986 2982 2983 2981 2977 2976 2972 2970 2969 2966 2965 2964 2963 2961 2959 2960 2959 2952 2950 2948 2945 2942 2940 2939 2937 2937
3058 3053 3048 3044 3039 3033 3028 3023 3018 3014 3011 3004 3001 2998 2992 2983 2983 2982 2982 2981 2980 2980 2978 2976 2976 2974 2971 2967 2964 2961 2960 2959 2958 2956 2955 2956 2956 2955 2951 2949 2945 2940 2939 2938 2936 2935 2934
3046 3042 3038 3032 3026 3021 3015 3011 3009 3005 3002 2996 2993 2991 2986 2980 2976 2976 2975 2975 2974 2972 2972 2970 2970 2969 2966 2963 2962 2958 2957 2956 2955 2955 2953 2953 2953 2954 2950 2946 2942 2938 2936 2935 2934 2931 2930
3033 3028 3023 3018 3012 3007 3003 3001 2999 2997 2994 2990 2985 2985 2981 2974 2972 2972 2970 2968 2969 2967 2965 2964 2964 2961 2959 2957 2956 2955 2953 2953 2952 2951 2950 2950 2949 2947 2944 2942 2937 2934 2933 2932 2933 2934 2928
3020 3014 3009 3004 2998 2994 2991 2990 2989 2987 2985 2982 2976 2977 2974 2968 2965 2963 2963 2963 2962 2961 2961 2961 2961 2956 2955 2954 2953 2952 2949 2949 2947 2946 2946 2946 2944 2941 2939 2937 2933 2930 2930 2930 2928 2924 2923
3006 3001 2996 2993 2988 2983 2980 2977 2976 2975 2974 2972 2966 2967 2966 2962 2958 2957 2955 2957 2956 2956 2955 2953 2954 2953 2953 2952 2952 2949 2947 2944 2942 2938 2939 2939 2938 2936 2935 2929 2926 2924 2923 2920 2918 2918 2916